TimeEST,TemperatureF,Dew PointF,Humidity,Sea Level PressureIn,VisibilityMPH,Wind Direction,Wind SpeedMPH,Gust SpeedMPH,PrecipitationIn,Events,Conditions,WindDirDegrees,DateUTC
12:15 AM,26.6,26.6,100,30.27,10.0,Calm,Calm,-,N/A,,Clear,0,2012-12-15 05:15:00
12:35 AM,28.4,28.4,100,30.27,10.0,Calm,Calm,-,N/A,,Clear,0,2012-12-15 05:35:00
12:55 AM,28.4,28.4,100,30.28,10.0,Calm,Calm,-,N/A,,Clear,0,2012-12-15 05:55:00
1:15 AM,28.4,28.4,100,30.27,7.0,Calm,Calm,-,N/A,,Clear,0,2012-12-15 06:15:00
1:35 AM,28.4,28.4,100,30.27,10.0,Calm,Calm,-,N/A,,Clear,0,2012-12-15 06:35:00
1:55 AM,28.4,28.4,100,30.27,10.0,Calm,Calm,-,N/A,,Clear,0,2012-12-15 06:55:00
2:15 AM,26.6,26.6,100,30.28,7.0,Calm,Calm,-,N/A,,Clear,0,2012-12-15 07:15:00
2:35 AM,28.4,28.4,100,30.28,10.0,Calm,Calm,-,N/A,,Clear,0,2012-12-15 07:35:00
2:55 AM,26.6,26.6,100,30.27,7.0,Calm,Calm,-,N/A,,Clear,0,2012-12-15 07:55:00
3:15 AM,28.4,28.4,100,30.28,10.0,Calm,Calm,-,N/A,,Clear,0,2012-12-15 08:15:00
3:35 AM,26.6,26.6,100,30.27,1.2,Calm,Calm,-,N/A,,Mist,0,2012-12-15 08:35:00
3:55 AM,26.6,26.6,100,30.28,10.0,Calm,Calm,-,N/A,,Clear,0,2012-12-15 08:55:00
4:15 AM,28.4,28.4,100,30.26,10.0,Calm,Calm,-,N/A,,Clear,0,2012-12-15 09:15:00
4:35 AM,28.4,28.4,100,30.25,10.0,Calm,Calm,-,N/A,,Clear,0,2012-12-15 09:35:00
4:55 AM,30.2,30.2,100,30.27,10.0,Calm,Calm,-,N/A,,Clear,0,2012-12-15 09:55:00
5:15 AM,28.4,28.4,100,30.25,10.0,Calm,Calm,-,N/A,,Clear,0,2012-12-15 10:15:00
5:35 AM,30.2,30.2,100,30.25,10.0,Calm,Calm,-,N/A,,Clear,0,2012-12-15 10:35:00
5:55 AM,30.2,30.2,100,30.25,10.0,Calm,Calm,-,N/A,,Clear,0,2012-12-15 10:55:00
6:15 AM,30.2,30.2,100,30.26,10.0,Calm,Calm,-,N/A,,Clear,0,2012-12-15 11:15:00
6:35 AM,30.2,30.2,100,30.26,10.0,Calm,Calm,-,N/A,,Clear,0,2012-12-15 11:35:00
6:55 AM,30.2,30.2,100,30.28,10.0,Calm,Calm,-,N/A,,Clear,0,2012-12-15 11:55:00
7:15 AM,30.2,30.2,100,30.30,10.0,Calm,Calm,-,N/A,,Clear,0,2012-12-15 12:15:00
7:35 AM,30.2,30.2,100,30.29,10.0,Calm,Calm,-,N/A,,Clear,0,2012-12-15 12:35:00
7:55 AM,30.2,30.2,100,30.30,10.0,Calm,Calm,-,N/A,,Clear,0,2012-12-15 12:55:00
8:15 AM,32.0,30.2,93,30.29,10.0,Calm,Calm,-,N/A,,Clear,0,2012-12-15 13:15:00
8:35 AM,32.0,32.0,100,30.29,10.0,Calm,Calm,-,N/A,,Clear,0,2012-12-15 13:35:00
8:55 AM,32.0,32.0,100,30.30,-9999.0,Calm,Calm,-,N/A,,Unknown,0,2012-12-15 13:55:00
9:15 AM,33.8,33.8,100,30.30,10.0,Calm,Calm,-,N/A,,Clear,0,2012-12-15 14:15:00
9:35 AM,35.6,33.8,93,30.30,10.0,Calm,Calm,-,N/A,,Clear,0,2012-12-15 14:35:00
9:55 AM,37.4,35.6,93,30.31,10.0,Calm,Calm,-,N/A,,Clear,0,2012-12-15 14:55:00
10:15 AM,41.0,35.6,81,30.30,10.0,Calm,Calm,-,N/A,,Clear,0,2012-12-15 15:15:00
10:35 AM,42.8,37.4,81,30.30,10.0,Calm,Calm,-,N/A,,Clear,0,2012-12-15 15:35:00
10:55 AM,42.8,35.6,76,30.29,10.0,Calm,Calm,-,N/A,,Clear,0,2012-12-15 15:55:00
11:15 AM,44.6,35.6,71,30.28,10.0,Calm,Calm,-,N/A,,Clear,0,2012-12-15 16:15:00
11:35 AM,44.6,33.8,66,30.28,10.0,Calm,Calm,-,N/A,,Clear,0,2012-12-15 16:35:00
11:55 AM,44.6,35.6,71,30.27,10.0,Calm,Calm,-,N/A,,Clear,0,2012-12-15 16:55:00
12:15 PM,46.4,33.8,62,30.27,10.0,Calm,Calm,-,N/A,,Clear,0,2012-12-15 17:15:00
12:35 PM,46.4,33.8,62,30.26,-9999.0,Calm,Calm,-,N/A,,Clear,0,2012-12-15 17:35:00
12:55 PM,46.4,35.6,66,30.25,10.0,Calm,Calm,-,N/A,,Clear,0,2012-12-15 17:55:00
1:15 PM,50.0,33.8,54,30.24,10.0,Calm,Calm,-,N/A,,Clear,0,2012-12-15 18:15:00
1:35 PM,50.0,32.0,50,30.22,10.0,East,4.6,-,N/A,,Clear,90,2012-12-15 18:35:00
1:55 PM,50.0,32.0,50,30.22,10.0,ESE,5.8,-,N/A,,Clear,110,2012-12-15 18:55:00
2:35 PM,51.8,32.0,47,30.21,10.0,ESE,8.1,-,N/A,,Clear,110,2012-12-15 19:35:00
2:55 PM,51.8,32.0,47,30.20,10.0,East,5.8,-,N/A,,Clear,100,2012-12-15 19:55:00
3:15 PM,51.8,32.0,47,30.20,10.0,East,3.5,-,N/A,,Clear,90,2012-12-15 20:15:00
3:35 PM,51.8,32.0,47,30.20,10.0,East,3.5,-,N/A,,Clear,90,2012-12-15 20:35:00
3:55 PM,50.0,32.0,50,30.20,10.0,East,3.5,-,N/A,,Clear,90,2012-12-15 20:55:00
4:15 PM,50.0,32.0,50,30.21,10.0,East,4.6,-,N/A,,Clear,90,2012-12-15 21:15:00
4:35 PM,46.4,33.8,62,30.20,10.0,East,4.6,-,N/A,,Clear,90,2012-12-15 21:35:00
4:55 PM,42.8,32.0,66,30.20,10.0,Calm,Calm,-,N/A,,Clear,0,2012-12-15 21:55:00
5:15 PM,41.0,35.6,81,30.21,-9999.0,Calm,Calm,-,N/A,,Clear,0,2012-12-15 22:15:00
5:35 PM,41.0,33.8,76,30.20,10.0,Calm,Calm,-,N/A,,Clear,0,2012-12-15 22:35:00
5:55 PM,35.6,33.8,93,30.19,10.0,Calm,Calm,-,N/A,,Clear,0,2012-12-15 22:55:00
6:15 PM,35.6,33.8,93,30.19,10.0,Calm,Calm,-,N/A,,Clear,0,2012-12-15 23:15:00
6:35 PM,37.4,33.8,87,30.19,10.0,Calm,Calm,-,N/A,,Clear,0,2012-12-15 23:35:00
7:15 PM,35.6,33.8,93,30.18,10.0,Calm,Calm,-,N/A,,Scattered Clouds,0,2012-12-16 00:15:00
7:35 PM,35.6,33.8,93,30.17,10.0,Calm,Calm,-,N/A,,Scattered Clouds,0,2012-12-16 00:35:00
7:55 PM,37.4,35.6,93,30.17,10.0,Calm,Calm,-,N/A,,Mostly Cloudy,0,2012-12-16 00:55:00
8:15 PM,39.2,37.4,93,30.17,10.0,Calm,Calm,-,N/A,,Overcast,0,2012-12-16 01:15:00
8:35 PM,41.0,37.4,87,30.16,-9999.0,Calm,Calm,-,N/A,,Overcast,0,2012-12-16 01:35:00
8:55 PM,41.0,37.4,87,30.15,10.0,Calm,Calm,-,N/A,,Overcast,0,2012-12-16 01:55:00
9:35 PM,42.8,37.4,81,30.15,10.0,Calm,Calm,-,N/A,,Overcast,0,2012-12-16 02:35:00
9:55 PM,42.8,37.4,81,30.15,10.0,Calm,Calm,-,N/A,,Overcast,0,2012-12-16 02:55:00
10:15 PM,42.8,39.2,87,30.15,10.0,Calm,Calm,-,N/A,,Overcast,0,2012-12-16 03:15:00
10:35 PM,42.8,39.2,87,30.15,-9999.0,Calm,Calm,-,N/A,,Overcast,0,2012-12-16 03:35:00
10:55 PM,42.8,41.0,93,30.15,10.0,Calm,Calm,-,N/A,,Overcast,0,2012-12-16 03:55:00
11:15 PM,42.8,39.2,87,30.15,10.0,Calm,Calm,-,N/A,Rain,Rain,0,2012-12-16 04:15:00
11:35 PM,42.8,41.0,93,30.15,10.0,Calm,Calm,-,N/A,,Light Drizzle,0,2012-12-16 04:35:00
11:55 PM,42.8,42.8,100,30.15,10.0,East,3.5,-,N/A,,Overcast,90,2012-12-16 04:55:00